Location: Mannheim
(49.4880°N, 8.4650°E)
Time: 05:20:14
(UTC+02:00)

ISS - Pass Details

Date: 10 July 2024
Orbit: 409 x 423 km, 51.6° (Epoch: 24 July)

Event Time Altitude Azimuth Distance (km) Brightness Sun altitude
Rises 01:24:15 0° 273° (W) 2,338 0.1 -18.3°
Reaches altitude 10° 01:26:21 10° 277° (W) 1,479 -0.9 -18.3°
Maximum altitude 01:29:37 57° 357° (N) 491 -3.1 -18.3°
Drops below altitude 10° 01:32:55 10° 78° (ENE) 1,485 -0.8 -18.3°
Sets 01:35:02 0° 82° (E) 2,351 0.2 -18.3°
